CAPE
1303 786 114 245 459 563 736 826 1134 1281 1388 1789 922 1216 1394 1123 892 899 1082 1348 1447 1485
1629 908 438 171 354 688 1060 1174 1168 1156 1541 1409 1602 1517 1212 916 575 0 59 1156 1405 670
1723 1513 705 244 403 820 1249 1268 1088 1121 1257 1422 2007 2057 1944 1374 1031 84 540 1442 1588 1318
1628 1665 1409 852 675 966 1412 1035 1182 1084 1264 1364 1689 1663 1452 993 1154 1241 1238 1532 1388 1535
1697 1503 1352 751 806 1175 1148 698 375 4 1039 1436 1618 1540 1532 940 1338 1242 1247 1393 1362 1111
1608 1613 1445 1313 1138 1015 1133 978 600 700 1362 1346 1308 1484 1590 1505 1716 1098 1248 1200 1089 864
1728 1533 1620 1595 1153 1012 1298 1005 1112 1398 1454 1279 1383 1526 1455 1608 1312 1556 1595 1392 1560 1171
1864 1733 1474 1436 1415 1531 1475 1067 895 1333 1490 1751 1886 1322 1631 1614 1193 1210 806 1411 1356 1450
1887 1908 1435 1598 1435 1387 1564 1339 1271 1582 1094 1395 1540 969 830 1190 938 1000 995 1023 1046 1345
2262 1980 1895 1677 1631 1376 1531 1429 1558 1648 1779 1669 1631 668 541 538 1083 1099 1226 928 635 735
2655 2146 2093 1584 1913 1711 1728 1775 1869 1902 1782 1599 1458 931 601 535 586 666 800 805 864 1161
2954 2499 2270 2056 2122 1949 1991 2165 2072 1965 1733 1811 1698 645 524 363 80 42 226 496 875 1155
3059 2735 2533 2162 1877 2360 2486 2036 1972 2018 2119 1830 1674 622 191 128 165 207 971 955 911 854
3280 2976 2813 2719 2416 2383 2362 2184 1905 1923 1761 1603 1201 470 0 0 47 780 918 784 897 1028
CIN
-3 -14 -72 -31 -23 -16 -6 -5 -9 -5 -14 -4 -38 -21 -20 -25 -24 -45 -27 -12 -18 -17
-3 -11 -34 -42 -32 -37 -5 -4 -19 -18 -16 -18 -18 -21 -26 -24 -74 -0 -118 -33 -14 -24
-3 -5 -19 -79 -51 -39 -9 -13 -15 -13 -17 -10 -1 -1 -12 -22 -40 -31 -54 -14 -8 -13
-11 -3 -7 -42 -39 -14 -3 -38 -21 -9 -10 -14 -5 -13 -17 -22 -17 -3 -8 -7 -9 -2
-7 -8 -18 -64 -35 -9 -5 -37 -68 -42 -5 -4 -4 -10 -12 -14 -1 -6 -10 -7 -9 -10
-25 -5 -14 -21 -19 -15 -4 -8 -59 -22 -4 -6 -10 -5 -11 -10 -4 -9 -6 -6 -5 -10
-26 -19 -2 -8 -20 -17 -2 -10 -6 -4 -8 -14 -11 -5 -5 -1 -7 -5 -2 -4 -4 -5
-40 -22 -21 -6 -2 -2 -5 -18 -21 -6 -4 -4 -8 -15 -4 -3 -7 -5 -15 -10 -9 -3
-51 -35 -39 -7 -11 -3 -5 -15 -16 -9 -24 -19 -11 -19 -9 -7 -13 -7 -9 -17 -14 -14
-25 -36 -38 -30 -23 -30 -12 -15 -15 -10 -5 -5 -6 -42 -42 -27 -10 -10 -11 -22 -28 -27
-8 -34 -31 -46 -17 -22 -7 -6 -5 -8 -11 -11 -18 -50 -59 -46 -38 -27 -28 -13 -14 -12
-2 -8 -27 -31 -5 -7 -5 -1 -3 -7 -9 -3 -3 -83 -75 -73 -114 -102 -60 -37 -15 -8
-3 -12 -45 -80 -98 -19 -0 -9 -7 -3 -1 -3 -4 -75 -101 -117 -101 -69 -19 -6 -17 -21
-1 -5 -35 -20 -33 -25 -1 -1 -8 -3 -7 -5 -30 -90 -0 -0 -105 -41 -18 -12 -7 -13
Wind_Speed
7 7 7 13 34 35 22 22 14 15 12 10 8 9 9 10 8 15 17 21 19 18
7 7 9 23 33 35 28 8 8 8 7 8 11 10 10 11 8 9 21 22 19 22
6 7 11 17 32 31 0 2 6 6 6 1 6 5 8 10 10 10 17 18 18 18
5 6 9 15 28 27 9 2 4 18 4 8 5 3 4 5 16 5 3 21 17 19
4 4 5 14 24 16 5 2 8 32 28 14 4 4 6 11 14 5 5 9 20 25
3 3 3 6 20 11 2 6 14 26 18 7 4 4 11 18 20 24 22 17 19 18
1 1 0 4 13 13 6 5 6 10 9 6 3 16 14 10 14 15 24 20 8 19
1 1 4 6 6 3 1 1 7 7 7 3 13 16 10 15 16 14 23 25 22 24
7 3 3 9 7 14 9 4 4 9 7 4 8 12 15 7 15 16 15 21 25 28
6 4 5 6 8 10 9 8 9 11 12 14 14 16 16 16 17 19 21 21 23 23
11 8 7 7 7 8 11 8 9 9 11 11 10 6 13 16 21 21 21 25 23 21
12 12 8 7 10 10 10 11 9 9 8 8 11 13 13 15 18 19 20 16 21 24
14 15 14 14 11 7 8 9 9 8 7 8 13 11 14 15 16 14 19 17 5 4
14 17 17 13 9 8 6 8 8 9 8 9 9 7 6 8 9 15 25 26 24 17
Wind_Direction
15 44 109 137 210 193 158 159 142 145 128 112 103 97 90 85 52 268 258 221 247 261
29 73 96 162 186 201 186 137 136 123 124 117 120 109 97 93 56 62 192 206 204 239
48 78 121 140 180 191 112 147 136 128 124 144 111 89 103 101 105 104 158 216 188 244
61 87 118 147 174 181 122 282 274 260 269 140 127 86 90 76 290 108 14 273 300 295
69 81 99 145 166 149 90 323 284 223 191 153 142 302 309 305 303 7 0 343 301 276
103 95 109 130 162 150 137 124 138 174 164 152 152 161 292 289 289 282 294 312 308 316
130 7 179 142 152 151 146 156 159 162 173 181 212 285 290 303 305 306 293 308 321 312
180 303 289 288 282 159 260 203 160 162 169 247 288 287 296 297 300 312 297 293 305 300
162 268 196 286 273 275 284 292 294 289 289 283 291 301 298 302 305 309 316 308 301 296
190 203 254 269 272 268 275 282 288 290 294 292 294 297 302 305 305 306 309 309 310 310
180 187 248 252 263 266 269 267 277 285 291 295 298 294 302 302 297 301 305 302 302 308
176 175 191 233 261 268 266 268 272 277 280 287 297 299 300 303 301 304 314 323 302 300
178 177 177 178 188 204 251 256 264 273 278 291 294 298 296 297 301 313 312 316 339 185
186 183 183 181 183 193 211 248 247 267 279 294 299 312 294 285 300 310 279 233 239 217